User: anonymous   Login
Location: Unspecified
(0.0000°N, 0.0000°E)
Time: 23:28:53
(UTC+00:00)
Language:

RESURS DK-1 - Orbit

View from above orbital plane
View from above orbital plane
View from above satellite
View from above satellite

Ground track
Ground track

The orbit data is extracted from the following two-line orbital elements,

1 29228U 06021A   15212.71686708  .00000330  00000-0  32897-4 0  9995
2 29228 069.9375 043.9025 0007071 294.4584 065.5810 15.01555215505036
Epoch (UTC): 31 July 2015 17:12:17
Eccentricity: 0.0007071
inclination: 69.9375°
perigee height: 557 km
apogee height: 567 km
right ascension of ascending node: 43.9025°
argument of perigee: 294.4584°
revolutions per day: 15.01555215
mean anomaly at epoch: 65.5810°
orbit number at epoch: 50503

The dashed part of the orbit path shows where the satellite is in the earth's shadow,  

DLR